Date String (YYYY-MM-DD hh:mm:ss) UTC,Instrument flags,Ambient pressure (hPa),Sample flow (lpm),Bypass flow (lpm),Sample temperature (°C),Ambient temperature (°C),ASC tube jacket temperature (°C),LED temperature (°C),Box temperature (°C),Sample RH (%),Span deviation,Mass concentration (μg/m³),Mass concentration (μg/m³),Mass concentration (μg/m³)
DateTimeUTC,F1_M11,P_M11,Q1_M11,Q2_M11,T1_M11,T2_M11,T3_M11,T4_M11,T5_M11,U1_M11,ZSPAN_M11,X0_M11,X2_M11,X1_M11
2023-01-17 11:00:00,,0813.6,4.99,0.00,22.7,22.6,00.0,31.4,24.7,12.1,0000.2,0011.68,0007.49,0007.08
2023-01-17 11:01:00,,0813.6,5.02,0.00,22.7,22.2,00.0,31.5,24.6,12.1,0001.2,0011.53,0007.38,0007.00
2023-01-17 11:02:00,,0814.1,5.00,0.00,22.7,21.8,00.0,31.5,24.5,12.2,0001.1,0011.26,0007.28,0006.93
2023-01-17 11:03:00,,0814.1,5.01,0.00,22.7,21.6,00.0,31.5,24.5,12.2,0001.3,0011.76,0007.22,0006.87
2023-01-17 11:04:00,,0814.2,5.00,0.00,22.7,21.5,00.0,31.5,24.4,12.2,0001.2,0011.59,0007.14,0006.82
2023-01-17 11:05:00,,0814.2,5.01,0.00,22.7,21.3,00.0,31.5,24.4,12.2,0001.6,0011.49,0007.11,0006.79
2023-01-17 11:06:00,,0814.2,5.00,0.00,22.7,21.2,00.0,31.5,24.3,12.3,0001.9,0011.45,0007.05,0006.75
2023-01-17 11:07:00,,0814.2,5.00,0.00,22.6,21.1,00.0,31.5,24.3,12.3,0001.3,0011.06,0007.01,0006.72
2023-01-17 11:08:00,,0814.1,5.01,0.00,22.6,21.1,00.0,31.5,24.3,12.3,0001.0,0011.09,0006.98,0006.71
2023-01-17 11:09:00,,0814.1,5.00,0.00,22.6,21.1,00.0,31.5,24.2,12.4,0001.6,0011.20,0007.00,0006.73
2023-01-17 11:10:00,,0813.7,5.00,0.00,22.6,21.0,00.0,31.5,24.2,12.4,0001.1,0011.29,0007.02,0006.73
2023-01-17 11:11:00,,0813.6,5.00,0.00,22.5,20.9,00.0,31.5,24.2,12.4,0001.3,0011.33,0007.03,0006.73
2023-01-17 11:12:00,,0813.5,5.00,0.00,22.5,20.9,00.0,31.5,24.2,12.5,0000.8,0011.29,0007.03,0006.73
2023-01-17 11:13:00,,0813.6,5.00,0.00,22.5,20.9,00.0,31.5,24.2,12.5,0000.8,0011.46,0007.03,0006.72
2023-01-17 11:14:00,,0813.6,5.00,0.00,22.5,20.8,00.0,31.4,24.1,12.6,0000.9,0011.25,0007.02,0006.71
2023-01-17 11:15:00,,0813.6,5.00,0.00,22.4,20.8,00.0,31.4,24.1,12.6,0000.3,0011.63,0007.02,0006.69
2023-01-17 11:16:00,,0813.6,5.01,0.00,22.4,20.8,00.0,31.4,24.1,12.7,-000.5,0011.66,0007.00,0006.66
2023-01-17 11:17:00,,0813.6,5.00,0.00,22.4,20.8,00.0,31.4,24.1,12.7,-000.2,0011.69,0006.98,0006.64
2023-01-17 11:18:00,,0813.6,5.01,0.00,22.4,21.4,00.0,31.3,24.2,12.7,-000.4,0011.62,0006.94,0006.61
2023-01-17 11:19:00,,0814.0,5.00,0.00,22.5,22.4,00.0,31.3,24.5,12.7,-000.1,0011.31,0006.87,0006.56
2023-01-17 11:20:00,,0814.2,5.00,0.00,22.6,23.0,00.0,31.4,24.6,12.7,-000.1,0011.25,0006.82,0006.51
2023-01-17 11:21:00,,0814.2,5.00,0.00,22.7,22.6,00.0,31.4,24.6,12.6,-000.2,0011.10,0006.74,0006.44
2023-01-17 11:22:00,,0814.2,5.01,0.00,22.7,22.2,00.0,31.4,24.5,12.6,-000.4,0011.07,0006.69,0006.38
2023-01-17 11:23:00,,0814.2,5.01,0.00,22.7,21.9,00.0,31.5,24.5,12.7,-000.0,0010.99,0006.65,0006.31
2023-01-17 11:24:00,,0814.2,4.99,0.00,22.7,21.6,00.0,31.5,24.4,12.7,0000.1,0010.42,0006.57,0006.25
2023-01-17 11:25:00,,0814.2,4.99,0.00,22.6,21.4,00.0,31.5,24.4,12.7,0000.0,0009.77,0006.49,0006.19
2023-01-17 11:26:00,,0814.2,4.99,0.00,22.6,21.3,00.0,31.5,24.3,12.8,0000.0,0009.70,0006.40,0006.12
2023-01-17 11:27:00,,0814.2,5.01,0.00,22.6,21.2,00.0,31.5,24.3,12.8,0000.0,0009.50,0006.30,0006.05
2023-01-17 11:28:00,,0814.1,5.00,0.00,22.6,21.1,00.0,31.5,24.3,12.9,0000.0,0009.26,0006.20,0005.97
2023-01-17 11:29:00,,0814.2,5.00,0.00,22.6,21.0,00.0,31.5,24.3,12.9,0000.0,0009.20,0006.15,0005.91
2023-01-17 11:30:00,,0814.2,4.99,0.00,22.5,21.0,00.0,31.5,24.2,12.9,0000.0,0009.15,0006.09,0005.86
2023-01-17 11:31:00,,0814.0,5.00,0.00,22.5,20.9,00.0,31.5,24.2,12.9,0000.0,0008.99,0006.01,0005.79
2023-01-17 11:32:00,,0813.6,4.98,0.00,22.5,20.9,00.0,31.4,24.2,13.0,0000.0,0008.93,0005.96,0005.75
2023-01-17 11:33:00,,0813.6,5.01,0.00,22.5,20.8,00.0,31.4,24.2,13.1,0000.0,0008.82,0005.89,0005.69
2023-01-17 11:34:00,,0813.5,5.00,0.00,22.4,20.8,00.0,31.4,24.1,13.2,-000.1,0008.74,0005.80,0005.63
2023-01-17 11:35:00,,0813.5,5.00,0.00,22.4,20.7,00.0,31.4,24.1,13.2,-000.9,0008.69,0005.74,0005.57
2023-01-17 11:36:00,,0813.5,5.00,0.00,22.4,20.7,00.0,31.4,24.1,13.3,-001.1,0008.67,0005.68,0005.51
2023-01-17 11:37:00,,0813.5,5.02,0.00,22.4,20.6,00.0,31.4,24.0,13.3,-000.8,0008.47,0005.65,0005.48
2023-01-17 11:38:00,,0813.6,4.99,0.00,22.3,20.6,00.0,31.4,24.0,13.4,-000.5,0008.38,0005.61,0005.44
2023-01-17 11:39:00,,0813.6,5.01,0.00,22.4,21.0,00.0,31.3,24.1,13.4,0000.4,0008.35,0005.58,0005.40
2023-01-17 11:40:00,,0813.5,4.99,0.00,22.4,22.1,00.0,31.3,24.3,13.3,0000.5,0008.30,0005.53,0005.36
2023-01-17 11:41:00,,0813.6,5.01,0.00,22.6,22.9,00.0,31.3,24.6,13.2,0001.5,0008.24,0005.47,0005.30
2023-01-17 11:42:00,,0813.6,4.99,0.00,22.6,22.8,00.0,31.3,24.6,13.2,0001.0,0008.25,0005.44,0005.27
2023-01-17 11:43:00,,0813.6,5.01,0.00,22.7,22.4,00.0,31.4,24.6,13.1,0000.0,0008.90,0005.41,0005.23
2023-01-17 11:44:00,,0813.6,5.01,0.00,22.6,22.0,00.0,31.4,24.5,13.1,0000.0,0009.11,0005.38,0005.21
2023-01-17 11:45:00,,0813.6,5.00,0.00,22.6,21.7,00.0,31.4,24.4,13.1,0000.0,0009.14,0005.38,0005.19
2023-01-17 11:46:00,,0813.7,5.00,0.00,22.6,21.5,00.0,31.4,24.4,13.0,0000.0,0009.14,0005.36,0005.18
2023-01-17 11:47:00,,0814.1,4.98,0.00,22.6,21.3,00.0,31.4,24.4,13.0,0000.0,0009.16,0005.36,0005.18
2023-01-17 11:48:00,,0814.0,5.00,0.00,22.6,21.2,00.0,31.4,24.3,13.0,0000.0,0009.01,0005.35,0005.18
2023-01-17 11:49:00,,0814.2,5.00,0.00,22.6,21.1,00.0,31.4,24.3,13.0,0000.0,0009.07,0005.36,0005.18
2023-01-17 11:50:00,,0814.2,5.00,0.00,22.6,21.0,00.0,31.4,24.2,13.0,0000.0,0009.09,0005.36,0005.18
2023-01-17 11:51:00,,0814.2,5.00,0.00,22.5,21.0,00.0,31.4,24.2,12.9,0000.0,0009.10,0005.37,0005.18
2023-01-17 11:52:00,,0814.2,5.00,0.00,22.5,21.0,00.0,31.4,24.2,12.9,0000.0,0009.15,0005.39,0005.20
2023-01-17 11:53:00,,0814.2,5.01,0.00,22.5,21.0,00.0,31.4,24.2,12.9,0000.0,0010.13,0005.42,0005.23
2023-01-17 11:54:00,,0814.2,5.02,0.00,22.5,21.0,00.0,31.4,24.2,13.0,0000.0,0009.69,0005.44,0005.24
2023-01-17 11:55:00,,0814.3,5.00,0.00,22.5,20.9,00.0,31.4,24.2,13.0,-000.6,0009.36,0005.46,0005.26
2023-01-17 11:56:00,,0814.2,5.00,0.00,22.4,20.9,00.0,31.4,24.1,12.9,-000.5,0009.75,0005.45,0005.27
2023-01-17 11:57:00,,0814.2,5.02,0.00,22.4,20.9,00.0,31.4,24.1,12.9,-000.1,0009.82,0005.49,0005.29
2023-01-17 11:58:00,,0814.3,4.98,0.00,22.4,20.9,00.0,31.4,24.1,12.9,-000.2,0009.79,0005.48,0005.29
2023-01-17 11:59:00,,0814.1,5.00,0.00,22.4,20.9,00.0,31.4,24.1,13.0,0000.0,0009.76,0005.50,0005.28
